Погода в Дамаскине

Россия / Кировская область     56°47′38″N   51°15′43″E
темп.,
°C
ветер,
м/с
пор.,
м/с
влажн.,
%
обл.,
%
осадки,
мм/ч
давл.,
гПа
погр.,
м
27 сентября, пн
пн2700:00+8всв4981100 0.0 1010389
03:00+7всв51184100 0.0 1011609
06:00+7в6994100 2.5 10121087
09:00+4всв61194100 3.0 1015953
12:00+3всв61294100 0.3 1017932
15:00+4в61385100 0.4 1019966
18:00+4в61378100 0.0 1021959
21:00+1св310906 0.0 1023303
28 сентября, вт
вт2800:00+2св412785 0.0 1024546
03:00+1св411865 0.0 1026446
06:000св4119121 0.0 1027416
09:00+4всв587134 0.0 1028773
12:00+7всв575476 0.0 10281301
15:00+6всв465457 0.0 10281332
18:00+2ссв227477 0.0 102933
21:00+3ссв2474100 0.0 103078
29 сентября, ср
ср2900:00+1с228281 0.0 103034
03:000ссв22905 0.0 103034
06:00−1с22925 0.0 103135
09:00+5ссв23645 0.0 1031447
12:00+8с23505 0.0 10311216
15:00+9с234911 0.0 10301389
18:00+4с22725 0.0 103111
21:00+2с11785 0.0 103210
30 сентября, чт
чт3000:00+1с118362 0.0 103210
03:00+3сз1175100 0.0 103215
06:00+4сз1285100 0.0 103239
09:00+6ссз2376100 0.0 1032313
12:00+8сз236358 0.0 1032763
15:00+8зсз2466100 0.0 1031300
18:00+6з247698 0.0 103078
21:00+6з258397 0.1 1030120
1 октября, пт
пт100:00+4з249322 0.0 103084
03:00+5з2592100 0.0 1029144
06:00+6зсз279218 0.0 1029238
09:00+9ссз357933 0.0 1029453
12:00+10ссз3572100 0.0 1029654
15:00+11ссз3568100 0.0 10291006
18:00+9ссз2673100 0.0 1030212
21:00+9ссз2474100 0.0 1031109